Total_Precipitation_Accumulation
1.74 1.73 1.71 1.73 1.87 2.00 2.16 2.42 2.66 2.56 2.25 2.01 1.93 1.84 1.77 1.83 2.01 1.75 1.65 1.64 1.49 1.40 1.39 1.37 1.41 1.47 1.52 1.51 1.54 1.62 1.72 1.87 2.10 2.28 2.45 2.66 2.82 2.96
1.58 1.55 1.52 1.51 1.61 1.65 1.77 1.94 2.24 2.46 2.29 1.91 1.84 1.74 1.71 1.63 1.85 1.65 1.64 1.64 1.42 1.25 1.18 1.15 1.18 1.24 1.27 1.29 1.31 1.35 1.44 1.55 1.73 1.93 2.14 2.34 2.51 2.70
1.37 1.39 1.41 1.47 1.54 1.50 1.56 1.68 1.85 2.10 2.26 2.04 1.87 1.76 1.73 1.77 1.74 1.61 1.51 1.42 1.32 1.25 1.10 1.03 1.02 1.11 1.13 1.13 1.19 1.23 1.25 1.35 1.53 1.72 1.92 2.13 2.29 2.39
1.27 1.34 1.35 1.38 1.46 1.49 1.58 1.67 1.77 1.96 2.11 2.17 1.99 1.83 1.76 1.75 1.75 1.66 1.37 1.24 1.22 1.27 1.11 1.01 0.94 0.93 1.03 1.03 1.05 1.13 1.23 1.31 1.41 1.53 1.69 1.85 1.99 2.07
1.19 1.27 1.31 1.37 1.38 1.42 1.51 1.57 1.69 1.80 1.99 2.09 1.98 1.85 1.76 1.70 1.82 1.68 1.53 1.58 1.28 1.20 1.12 1.05 0.98 0.96 1.18 1.22 1.02 1.02 1.09 1.21 1.28 1.36 1.49 1.61 1.70 1.76
1.06 1.15 1.21 1.28 1.29 1.38 1.41 1.50 1.58 1.77 1.95 2.02 1.91 1.79 1.73 1.75 1.87 1.87 1.77 1.67 1.50 1.18 1.17 1.11 1.05 1.07 1.40 1.92 1.43 1.13 1.08 1.16 1.25 1.30 1.33 1.35 1.35 1.38
0.98 1.04 1.09 1.10 1.12 1.18 1.19 1.33 1.51 1.71 1.82 1.92 1.87 1.81 1.75 1.87 1.88 1.82 1.76 1.73 1.56 1.36 1.35 1.22 1.32 1.58 2.09 2.71 2.24 1.63 1.40 1.29 1.23 1.28 1.29 1.26 1.21 1.16
1.07 1.07 0.99 0.97 0.93 0.89 0.94 1.04 1.24 1.50 1.74 1.87 1.83 1.82 1.79 1.85 1.97 1.94 1.90 1.92 1.84 1.53 1.48 1.41 1.59 2.33 2.95 3.22 2.76 1.94 1.64 1.42 1.29 1.34 1.40 1.35 1.19 1.08
1.10 1.08 0.90 0.83 0.94 0.95 0.95 0.96 1.07 1.20 1.46 1.75 1.86 1.77 1.80 1.89 2.08 2.13 2.06 2.03 1.94 1.68 1.73 1.70 1.86 2.67 2.89 3.00 2.81 2.01 1.70 1.55 1.48 1.55 1.55 1.37 1.18 1.06
0.86 0.93 1.01 1.01 0.94 0.99 1.00 1.08 1.15 1.24 1.31 1.46 1.70 1.67 1.63 1.77 1.96 2.00 1.98 1.93 1.84 1.70 1.74 1.87 2.04 2.53 2.48 2.57 2.60 2.06 1.74 1.62 1.57 1.58 1.52 1.30 1.11 0.99
0.68 0.73 0.80 0.86 0.85 0.92 1.04 1.22 1.27 1.38 1.34 1.50 1.53 1.48 1.49 1.54 1.55 1.65 1.92 2.09 1.98 1.70 1.57 1.71 1.89 2.19 2.24 2.30 2.18 1.98 1.78 1.66 1.55 1.49 1.40 1.18 1.06 1.01
0.73 0.78 0.75 0.68 0.73 0.83 1.04 1.30 1.47 1.52 1.58 1.70 1.65 1.62 1.53 1.50 1.43 1.49 1.83 2.09 2.07 1.84 1.55 1.59 1.70 1.89 2.14 2.09 1.90 1.77 1.79 1.81 1.70 1.61 1.43 1.15 0.95 0.90
0.76 0.84 0.84 0.69 0.63 0.71 0.92 1.16 1.34 1.40 1.65 1.90 1.75 1.58 1.52 1.49 1.46 1.47 1.64 1.78 1.78 1.68 1.44 1.55 1.72 1.81 1.94 1.97 1.89 1.85 1.75 1.74 1.73 1.78 1.66 1.33 1.01 0.81
0.80 0.83 0.83 0.77 0.72 0.78 0.93 1.10 1.23 1.42 1.65 1.78 1.58 1.41 1.31 1.29 1.34 1.31 1.30 1.34 1.41 1.40 1.34 1.48 1.75 1.92 1.93 1.81 1.86 1.85 1.83 1.81 1.79 1.82 1.80 1.62 1.30 1.08
0.71 0.78 0.75 0.71 0.81 1.02 1.15 1.25 1.41 1.64 1.70 1.57 1.44 1.31 1.20 1.22 1.21 1.20 1.20 1.25 1.25 1.12 1.06 1.20 1.51 1.73 1.86 1.82 1.83 1.82 1.90 2.05 2.02 1.98 1.92 1.74 1.50 1.27
0.70 0.83 0.88 0.88 1.03 1.22 1.35 1.45 1.57 1.67 1.53 1.40 1.34 1.22 1.12 1.19 1.24 1.19 1.30 1.34 1.33 1.24 1.13 1.16 1.32 1.58 1.71 1.70 1.82 1.90 1.94 2.27 2.32 2.13 2.09 2.03 1.76 1.50
0.70 0.87 1.00 1.03 1.14 1.29 1.42 1.49 1.54 1.55 1.48 1.34 1.28 1.21 1.15 1.14 1.11 1.06 1.18 1.26 1.30 1.30 1.29 1.26 1.30 1.40 1.49 1.58 1.75 1.86 1.98 2.22 2.31 2.11 2.02 2.10 1.95 1.66
0.74 1.01 1.10 1.08 1.12 1.20 1.31 1.42 1.43 1.41 1.36 1.37 1.37 1.33 1.26 1.16 1.12 1.06 1.08 1.16 1.24 1.22 1.23 1.22 1.21 1.25 1.35 1.46 1.62 1.73 1.78 1.97 2.03 1.90 1.71 1.78 1.93 1.72
0.77 1.00 1.11 1.13 1.15 1.18 1.21 1.27 1.34 1.35 1.29 1.30 1.33 1.28 1.18 1.11 1.08 1.08 1.08 1.14 1.17 1.12 1.05 0.99 1.03 1.11 1.23 1.49 1.62 1.64 1.65 1.68 1.69 1.69 1.59 1.50 1.61 1.60
0.76 0.96 1.06 1.11 1.15 1.19 1.19 1.18 1.23 1.28 1.23 1.18 1.22 1.20 1.13 1.08 1.09 1.11 1.11 1.06 1.06 1.00 0.97 0.92 0.92 1.01 1.15 1.33 1.67 1.80 1.57 1.39 1.36 1.47 1.48 1.45 1.55 1.56
0.72 0.83 0.94 1.02 1.03 1.05 1.10 1.13 1.16 1.21 1.15 1.11 1.14 1.15 1.13 1.10 1.04 0.97 0.94 0.86 0.91 0.95 0.93 0.93 0.91 0.86 0.86 0.98 1.26 1.52 1.56 1.42 1.28 1.28 1.29 1.37 1.41 1.31
0.65 0.75 0.84 0.88 0.89 0.85 0.88 0.92 0.96 0.97 0.97 1.02 1.08 1.04 0.98 0.95 0.88 0.81 0.81 0.83 0.88 0.91 0.88 0.83 0.79 0.80 0.86 0.98 1.13 1.29 1.38 1.26 1.16 1.14 1.12 1.09 1.08 1.13
0.70 0.73 0.76 0.77 0.77 0.75 0.74 0.74 0.78 0.83 0.86 0.88 0.95 0.93 0.86 0.82 0.78 0.72 0.69 0.69 0.70 0.72 0.75 0.79 0.81 0.82 0.84 0.87 0.90 0.99 1.08 1.09 1.02 0.98 1.06 1.06 0.98 1.04